Location: Ariel
(45.9570°N, 122.5700°W)
Time: 08:17:50
(UTC-07:00)

Transit 4A - Pass Details

Date: 20 July 2019
Orbit: 863 x 981 km, 66.8° (Epoch: 22 August)

Event Time Altitude Azimuth Distance (km) Brightness Sun altitude
Rises 06:11:47 0° 288° (WNW) 3,684 10.6 4.1°
Reaches altitude 10° 06:16:02 10° 315° (NW) 2,741 10.2 4.8°
Maximum altitude 06:19:00 13° 343° (NNW) 2,503 10.3 5.2°
Drops below altitude 10° 06:21:57 10° 10° (N) 2,736 10.9 5.7°
Sets 06:26:12 0° 37° (NE) 3,671 12.2 6.4°
